Regional Weather Roundup
Issued by NWS

Home | Current Version | Previous Version | Graphics & Text | Print | Product List | Glossary On
Versions: 1 2 3 4 5 6 7 8 9 10 11 12 13 14 15 16 17 18 19 20 21 22 23 24 25 26 27 28 29 30 31 32 33 34 35 36 37 38 39 40 41 42 43 44 45 46 47 48 49 50
000
ASUS43 KLOT 200008
RWRIL

ILLINOIS REGIONAL WEATHER ROUNDUP
NATIONAL WEATHER SERVICE CHICAGO/ROMEOVILLE IL
700 PM CDT SAT AUG 19 2017

NOTE: "FAIR" INDICATES FEW OR NO CLOUDS BELOW 12,000 FEET WITH NO
SIGNIFICANT WEATHER AND/OR OBSTRUCTIONS TO VISIBILITY.

* THESE STATIONS ARE NOT UNDER NWS QUALITY CONTROL. THEY ALSO MAY NOT
  REPORT WEATHER SUCH AS PRECIPITATION OR FOG.

ILZ001-002-007-009-015-016-024-200100-
NORTHWEST ILLINOIS

CITY           SKY/WX    TMP DP  RH WIND       PRES   REMARKS
MOLINE         CLEAR     79  63  57 SE5       29.93F HX  80
6HR MIN TEMP:  79; 6HR MAX TEMP:  83;

STERLING*      CLEAR     77  65  66 CALM      29.95F
SAVANNA*       CLEAR     79  61  54 S6        29.94S HX  80
$$

ILZ003-004-008-010-011-017-018-200100-
NORTH CENTRAL ILLINOIS

CITY           SKY/WX    TMP DP  RH WIND       PRES   REMARKS
ROCKFORD       CLEAR     77  60  55 S5        29.96F
6HR MIN TEMP:  77; 6HR MAX TEMP:  81;

FREEPORT*      CLEAR     76  63  65 CALM      29.97F
ROCHELLE*      CLEAR     76  65  67 CALM      29.96S
DE KALB*       CLEAR     75  63  66 S3        29.97F
PERU*          CLEAR     78  60  55 CALM      29.96S
$$

ILZ005-006-012>014-019>023-200100-
NORTHEAST ILLINOIS

CITY           SKY/WX    TMP DP  RH WIND       PRES   REMARKS
CHICAGO-OHARE  PTCLDY    80  55  42 E9        29.95R HX  80
6HR MIN TEMP:  80; 6HR MAX TEMP:  86;

CHICAGO-MIDWAY PTCLDY    79  54  41 E8        29.95R
6HR MIN TEMP:  79; 6HR MAX TEMP:  82;

AURORA         CLEAR     76  67  73 W3        29.96F
6HR MIN TEMP:  76; 6HR MAX TEMP:  81;

LANSING*       CLEAR     77  52  42 E6        29.96R
JOLIET*        CLEAR     80  59  48 NW3       29.96R HX  81
WAUKEGAN       CLEAR     73  61  65 S7        29.95S
6HR MIN TEMP:  73; 6HR MAX TEMP:  78;

DUPAGE AIRPORT CLEAR     76  62  62 W7        29.95S
6HR MIN TEMP:  76; 6HR MAX TEMP:  83;

KANKAKEE*      CLEAR     78  62  56 W3        29.96R HX  80
WHEELING       CLEAR     77  60  55 SE6       29.96S
6HR MIN TEMP:  77; 6HR MAX TEMP:  83;

MORRIS*        CLEAR     77  61  58 CALM      29.95S
ROMEOVILLE*    CLEAR     76  57  51 W5        29.96S
NORTHERLY ISL    N/A     74  61  63 E7          N/A
$$

LMZ740>746-200100-
SOUTHERN LAKE MICHIGAN

STATION/POSITION SKY/WX   TEMP    WIND        PRES    VSBY  WAVE
                          AIR SEA DIR/SP/G                  HT/PER
                          (F)     (DEG/KT/KT) (MB)    (MI)  (FT/S)
SOUTHERN BUOY              72 72  170/  8/ 10 1014.1F         1
WILMETTE HARBOR            74 74  140/  8/ 10   N/A           1/ 2
HARRISON CRIB              76     140/  8/  9   N/A
CALUMET HARBOR             75      70/  7/ 10 1013.9S
BURNS HARBOR               76      60/  8/  9 1014.9S
MICHIGAN CITY              73      40/  6/  7   N/A
MICHIGAN CITY 6N           74 76   90/  6/  6   N/A           1/ 4
ST. JOSEPH                 73 79   30/  2/  4 1014.5          1/ 4
$$

ILZ025>027-034>036-040-047-049-050-058-095>099-200100-
WEST-CENTRAL ILLINOIS

CITY           SKY/WX    TMP DP  RH WIND       PRES   REMARKS
QUINCY         MOCLDY    86  66  51 E5        29.91S HX  88
MACOMB*        CLEAR     78  71  77 E3        29.95F HX  81
JACKSONVILLE*  CLEAR     83  66  57 CALM      29.92S HX  85
PITTSFIELD*    CLEAR     83  71  67 E5        29.93S HX  87
$$

ILZ028>032-037-038-041>044-048-051>054-059>061-200100-
CENTRAL ILLINOIS

CITY           SKY/WX    TMP DP  RH WIND       PRES   REMARKS
PONTIAC        CLEAR     79  63  59 CALM      29.96S HX  80
BLOOMINGTON    CLEAR     78  65  63 NE5       29.97R HX  80
DECATUR        CLEAR     80  70  71 NE3       29.94S HX  83
PEORIA         PTCLDY    82  62  50 N3        29.94S HX  83
6HR MIN TEMP:  81; 6HR MAX TEMP:  87;

LACON*         CLEAR     77  63  60 CALM      29.94S
LINCOLN*       CLEAR     80  67  65 NE3       29.94S HX  83
SPRINGFIELD    CLEAR     84  71  65 NE6       29.93S HX  89
6HR MIN TEMP:  84; 6HR MAX TEMP:  90;

TAYLORVILLE    CLEAR     83  68  60 CALM      29.94S HX  86
6HR MIN TEMP:  83; 6HR MAX TEMP:  86;

$$

ILZ033-039-045-046-055>057-062-063-200100-
EAST-CENTRAL ILLINOIS

CITY           SKY/WX    TMP DP  RH WIND       PRES   REMARKS
CHAMPAIGN      CLEAR     82  64  54 N5        29.95S HX  83
RANTOUL*       PTCLDY    83  67  56 NE8       29.95S HX  86
MATTOON        PTCLDY    83  72  69 N6        29.93R HX  88
PARIS*         CLEAR     82  68  64 N3        29.94S HX  84
$$

ILZ079-100>102-200100-
SOUTHWEST ILLINOIS

CITY           SKY/WX    TMP DP  RH WIND       PRES   REMARKS
ALTON          PTCLDY    84  70  61 CALM      29.93S HX  88
BELLEVILLE     CLEAR     85  71  63 NE6       29.92S HX  90
CAHOKIA*       MOCLDY    89  64  43 N7        29.91R HX  90
SPARTA*        PTCLDY    87  69  56 CALM      29.93S HX  91
$$

ILZ064>066-069>071-074>076-080>082-084>086-088>090-092>094-200100-
SOUTH-CENTRAL ILLINOIS

CITY           SKY/WX    TMP DP  RH WIND       PRES   REMARKS
CARBONDALE     CLEAR     84  78  82 E3        29.92F HX  95
6HR MIN TEMP:  84; 6HR MAX TEMP:  89;

CAIRO*         CLEAR     84  75  75 S3        29.92S HX  91
EFFINGHAM*     PTCLDY    85  70  60 SW3       29.94S HX  89
MARION         CLEAR     84  73  70 NE6       29.93F HX  91
MT. VERNON       N/A     86  73  65 CALM      29.93S HX  93
CENTRALIA*     CLEAR     87  70  56 CALM      29.92S HX  92
SALEM*         CLEAR     86  69  55 CALM      29.93S HX  90
METROPOLIS*    CLEAR     86  74  66 CALM      29.93S HX  94
$$

ILZ067-068-072-073-078-083-087-091-200100-
SOUTHEAST ILLINOIS

CITY           SKY/WX    TMP DP  RH WIND       PRES   REMARKS
LAWRENCEVILLE  PTCLDY    83  69  62 E3        29.92S HX  86
FLORA*         CLEAR     86  67  52 W6        29.93R HX  88
FAIRFIELD*     CLEAR     85  71  63 CALM      29.92R HX  90
HARRISBURG*    CLEAR     87  72  60 CALM      29.93S HX  93
ROBINSON*      CLOUDY    77  73  87 CALM      29.93R
CARMI*         CLEAR     82  76  84 S3        29.92S HX  89
$$

ABBREVIATIONS USED IN REMARKS
   TC - TEMPERATURE IN CELSIUS
  WCI - WIND CHILL INDEX
   HX - HEAT INDEX
  VSB - VISIBILITY
$$




USA.gov is the U.S. government's official web portal to all federal, state and local government web resources and services.